Tracking 19709 objects as of 18-Jun-2019
HD Live streaming from Space Station
objects crossing your sky now

COSMOS 1995

Track COSMOS 1995 now!
10-day predictions
COSMOS 1995 is classified as:


NORAD ID: 19786
Int'l Code: 1989-009B
Perigee: 1,417.7 km
Apogee: 1,424.7 km
Inclination: 82.6 °
Period: 114.1 minutes
Semi major axis: 7792 km
RCS: 1.2185 m2 (large)
Launch date: February 10, 1989
Source: Commonwealth of Independent States (former USSR) (CIS)
Launch site: PLESETSK MISSILE AND SPACE COMPLEX (PKMTR)
aabbcc
Your satellite tracking list
Your tracking list is empty




NASA's NSSDC Master Catalog

Two Line Element Set (TLE):
1 19786U 89009B   19169.61339792  .00000036  00000-0  14237-3 0  9992
2 19786  82.6224 209.3056 0004510 135.6226 337.8732 12.62149232398136
Source of the keplerian elements: AFSPC